www.pogodaiklimat.ru

Погода и климат >> Архив погоды >> Норвегия >> Мосстранд


ПОГОДА в Мосстранде

  • Прогноз погоды в Мосстранде
  • Монитор погоды в Мосстранде

АРХИВ ПОГОДЫ в Мосстранде

Время (UTC), дата Ветер
(напр.,м/с)
 
Видим.   Явления Облачность Т
(С)
Тd
(С)
f
(%)
Тe
(С)
Тes
(С)
Комфортность P
(гПа)
Po
(гПа)
Тmin
(С)
Tmax
(С)
R
(мм)
R24
(мм)
S
(см)
01 10.06 З 5-8
{9}
н/о н/о +3.5 +0.7 82 -2 -2 1018.3 904.1
02 10.06 З 7-10
{11}
н/о н/о +3.6 +1.0 83 -2 -2 1018.3 904.1
03 10.06 ЮЗ 2-4
{10}
н/о н/о +3.0 +0.6 84 0 0 1018.8 904.3
04 10.06 З 5-7
{8}
н/о н/о +3.4 +1.1 85 -2 -2 1019.0 904.6
05 10.06 З 6-9
{9}
н/о н/о +4.3 +0.6 77 -1 -1 1019.0 905.0
06 10.06 З 7-9
{11}
н/о н/о +4.7 -0.1 71 -1 -1 1018.8 905.0 +2.9 +5.7
07 10.06 СЗ 5-8
{9}
н/о н/о +6.6 +0.3 64 +3 +3 1018.2 905.1
08 10.06 З 6-8
{10}
н/о н/о +7.7 +0.9 62 +4 +4 1018.3 905.7
09 10.06 СЗ 4-6
{8}
н/о н/о +7.1 -0.3 59 +4 +4 1019.1 906.1
10 10.06 СЗ 5-8
{8}
н/о н/о +9.7 +0.4 52 +7 +7 1018.0 906.1
11 10.06 СЗ 4-7
{8}
н/о н/о +9.1 -0.2 52 +7 +7 1018.5 906.3
12 10.06 СЗ 5-7
{10}
н/о н/о +10.2 +0.5 51 +8 +8 1018.0 906.3
13 10.06 СЗ 4-7
{8}
н/о н/о +10.6 -1.1 44 +9 +9 1018.0 906.5
14 10.06 СЗ 3-4
{6}
н/о н/о +10.0 -0.2 49 +8 +8 1018.2 906.4
15 10.06 СЗ 2-3
{5}
н/о н/о +9.0 0.0 53 +8 +8 1018.8 906.6
16 10.06 СЗ 2-4
{4}
н/о н/о +11.4 +0.2 46 +11 +11 1017.9 906.7
17 10.06 СЗ 2-2
{3}
н/о н/о +9.0 -1.1 49 +8 +8 1018.8 906.6
18 10.06 С 2-3
{8}
н/о н/о +11.9 -0.6 42 +11 +11 1017.5 906.5 +4.7 +12.7
19 10.06 С 2-3
{3}
н/о н/о +11.1 -1.3 42 +10 +10 1017.8 906.5
20 10.06 СЗ 2-3
{3}
н/о н/о +8.8 +0.3 55 +7 +7 1019.1 906.8
21 10.06 СЗ 2-2
{2}
н/о н/о +6.6 -0.1 62 +5 +5 1020.5 907.2
22 10.06 ЮЗ 1-1
{2}
н/о н/о +5.0 +0.2 71 +4 +4 1021.5 907.5
23 10.06 В 1-1
{2}
н/о н/о +4.1 +0.3 76 +3 +3 1022.0 907.6
00 11.06 СВ 1-1
{3}
н/о н/о +3.1 +0.2 81 +2 +2 1022.2 907.4
01 11.06 С 1-2
{2}
н/о н/о +3.4 +0.5 81 +2 +2 1022.1 907.4
02 11.06 С 1-3
{3}
н/о н/о +2.6 +0.7 87 +1 +1 1022.5 907.4
03 11.06 С 1-2
{3}
н/о н/о +2.3 +0.8 90 +1 +1 1023.3 908.0
04 11.06 СЗ 1-2
{2}
н/о н/о +3.1 +1.0 86 +2 +2 1023.0 908.1
05 11.06 СЗ 2-3
{3}
н/о н/о +4.5 +2.7 88 +2 +2 1022.3 908.0
06 11.06 СЗ 1-2
{3}
н/о н/о +6.8 +1.9 71 +6 +6 1021.4 908.1 +1.8 +11.8
07 11.06 В 2-4
{4}
н/о н/о +11.6 +1.3 49 +11 +11 1019.5 908.2
08 11.06 В 3-5
{5}
н/о н/о +13.6 +2.2 46 +13 +13 1019.1 908.5
09 11.06 В 3-6
{6}
н/о н/о +14.9 +3.4 46 +14 +14 1018.7 908.6
10 11.06 В 3-5
{9}
н/о н/о +15.3 +3.8 46 +15 +15 1018.5 908.6
11 11.06 В 3-6
{7}
н/о н/о +15.1 +5.3 52 +15 +15 1018.5 908.5
12 11.06 В 2-6
{9}
н/о н/о +16.8 +4.8 45 +17 +17 1018.1 908.8
13 11.06 ЮВ 4-9
{9}
н/о н/о +13.7 +2.0 45 +12 +12 1019.2 908.7
14 11.06 ЮВ 6-8
{8}
н/о н/о +13.6 +1.6 44 +12 +12 1019.3 908.7
15 11.06 В 3-8
{8}
н/о н/о +13.3 +3.1 50 +12 +12 1019.6 908.9
16 11.06 В 3-8
{8}
н/о н/о +11.9 +2.9 54 +11 +11 1020.4 909.1
17 11.06 В 3-7
{10}
н/о н/о +11.6 +2.6 54 +10 +10 1020.3 908.9
18 11.06 В 3-7
{10}
н/о н/о +11.3 +3.6 59 +10 +10 1020.8 909.2 +6.9 +17.9
19 11.06 В 3-8
{9}
н/о н/о +11.2 +3.0 57 +10 +10 1020.5 908.9
20 11.06 ЮВ 4-7
{10}
н/о н/о +8.2 +6.8 91 +5 +5 1022.5 909.6
21 11.06 В 3-5
{9}
н/о н/о +7.6 +6.5 93 +5 +5 1023.3 910.1
22 11.06 В 4-7
{7}
н/о н/о +7.2 +6.3 94 +4 +4 1023.4 910.0
23 11.06 В 3-7
{9}
н/о н/о +6.6 +5.7 94 +3 +3 1024.2 910.5
00 12.06 СВ 3-7
{10}
н/о н/о +5.9 +5.2 95 +2 +2 1024.4 910.4 1
01 12.06 СВ 3-8
{9}
н/о н/о +5.8 +5.4 97 +2 +2 1023.9 909.9
02 12.06 В 4-13
{13}
н/о н/о +5.5 +5.1 97 +1 +1 1023.9 909.8
03 12.06 В 3-7
{10}
н/о н/о +5.2 +4.8 97 +2 +2 1024.1 909.9
04 12.06 В 3-6
{7}
н/о н/о +5.1 +4.7 97 +1 +1 1024.0 909.7
05 12.06 В 2-4
{7}
н/о н/о +5.3 +4.9 97 +3 +3 1024.0 909.8
06 12.06 С 1-3
{13}
н/о н/о +5.5 +5.1 97 +4 +4 1023.4 909.4 +5.0 +11.4 5
07 12.06 В 2-6
{6}
н/о н/о +5.6 +5.0 96 +3 +3 1023.5 909.5
08 12.06 СВ 2-6
{6}
н/о н/о +5.5 +4.8 95 +3 +3 1023.2 909.2
09 12.06 СВ 2-6
{6}
н/о н/о +5.6 +4.9 95 +3 +3 1022.7 908.8
10 12.06 СВ 1-4
{5}
н/о н/о +6.0 +5.3 95 +5 +5 1021.8 908.1
11 12.06 СВ 1-5
{6}
н/о н/о +6.5 +5.9 96 +5 +5 1020.9 907.5
12 12.06 СВ 2-6
{7}
н/о н/о +8.0 +6.3 89 +6 +6 1019.8 907.1
13 12.06 СВ 1-4
{6}
н/о н/о +6.2 +5.2 93 +5 +5 1020.8 907.3
14 12.06 СВ 2-5
{7}
н/о н/о +5.9 +4.9 93 +3 +3 1020.4 906.9
15 12.06 СВ 2-6
{6}
н/о н/о +5.6 +4.9 95 +3 +3 1020.1 906.5
16 12.06 СВ 1-6
{8}
н/о н/о +4.7 +4.1 96 +3 +3 1020.3 906.3
17 12.06 СВ 1-4
{6}
н/о н/о +4.6 +4.2 97 +3 +3 1019.7 905.7
18 12.06 СВ 1-2
{8}
н/о н/о +4.4 +4.0 97 +3 +3 1018.9 905.0 +4.4 +8.7 1
19 12.06 СВ 1-2
{5}
н/о н/о +4.4 +4.0 97 +3 +3 1018.5 904.6
20 12.06 СВ 1-3
{5}
н/о н/о +4.1 +3.7 97 +2 +2 1018.1 904.1
21 12.06 СВ 1-3
{5}
н/о н/о +4.1 +3.7 97 +2 +2 1017.6 903.7
22 12.06 В 1-4
{4}
н/о н/о +4.0 +3.7 98 +2 +2 1016.8 902.9
23 12.06 СВ 1-4
{5}
н/о н/о +4.0 +3.7 98 +2 +2 1015.7 902.0
00 13.06 С 1-4
{5}
н/о н/о +4.0 +3.7 98 +2 +2 1014.4 900.8
01 13.06 С 1-3
{5}
н/о н/о +4.0 +3.7 98 +2 +2 1013.8 900.3 1
02 13.06 СВ 2-7
{7}
н/о н/о +4.1 +3.8 98 +1 +1 1011.0 897.8 5
03 13.06 З 1-2
{5}
н/о н/о +4.2 +3.9 98 +3 +3 1011.0 897.9 1
04 13.06 С 1-2
{4}
н/о н/о +4.5 +4.2 98 +3 +3 1010.0 897.1
05 13.06 ЮВ 4-7
{7}
н/о н/о +4.7 +4.4 98 0 0 1010.4 897.5
06 13.06 СВ 1-3
{7}
н/о н/о +5.2 +4.9 98 +4 +4 1009.8 897.2 +4.0 +5.2 10
07 13.06 СВ 1-3
{5}
н/о н/о +5.6 +5.3 98 +4 +4 1009.2 896.8
08 13.06 В 1-2
{4}
н/о н/о +6.1 +5.8 98 +5 +5 1009.3 897.1
09 13.06 В 1-1
{3}
н/о н/о +6.5 +6.1 97 +5 +5 1009.4 897.3
10 13.06 В 2-3
{3}
н/о н/о +7.1 +6.7 97 +5 +5 1009.5 897.6
11 13.06 ЮВ 2-4
{4}
н/о н/о +7.2 +6.6 96 +5 +5 1009.9 898.0
12 13.06 ЮВ 2-4
{5}
н/о н/о +7.9 +7.3 96 +6 +6 1009.7 898.1
13 13.06 ЮВ 4-6
{8}
н/о н/о +8.5 +7.6 94 +5 +5 1010.1 898.7
14 13.06 ЮВ 4-8
{8}
н/о н/о +8.5 +7.4 93 +5 +5 1010.5 899.0
15 13.06 Ю 6-9
{9}
н/о н/о +9.2 +7.2 87 +5 +5 1011.1 899.8
16 13.06 Ю 6-9
{9}
н/о н/о +9.1 +6.2 82 +5 +5 1011.4 900.0
17 13.06 Ю 6-9
{9}
н/о н/о +9.0 +5.8 80 +5 +5 1011.9 900.4
18 13.06 ЮВ 6-8
{9}
н/о н/о +8.8 +6.3 84 +5 +5 1012.6 901.0 +5.0 +9.8 0.3
19 13.06 ЮВ 4-6
{9}
н/о н/о +8.4 +5.9 84 +5 +5 1013.4 901.6
20 13.06 Ю 6-8
{9}
н/о н/о +7.9 +6.4 90 +4 +4 1014.3 902.2
21 13.06 Ю 5-7
{8}
н/о н/о +7.4 +6.4 93 +3 +3 1015.3 902.9
22 13.06 ЮВ 4-6
{6}
н/о н/о +7.3 +6.1 92 +4 +4 1015.6 903.1
23 13.06 ЮВ 5-8
{8}
н/о н/о +7.0 +5.6 91 +3 +3 1015.9 903.3
00 14.06 ЮВ 5-8
{9}
н/о н/о +6.3 +4.8 90 +2 +2 1016.1 903.2
01 14.06 ЮВ 4-5
{7}
н/о н/о +6.3 +5.1 92 +2 +2 1016.5 903.5
02 14.06 Ю 5-8
{8}
н/о н/о +6.4 +5.2 92 +2 +2 1017.1 904.1
03 14.06 ЮВ 3-4
{6}
н/о н/о +6.5 +5.3 92 +3 +3 1017.2 904.2
04 14.06 В 2-4
{4}
н/о н/о +6.8 +5.8 93 +4 +4 1016.8 904.0
05 14.06 В 2-5
{5}
н/о н/о +7.4 +5.7 89 +5 +5 1017.0 904.4
06 14.06 В 1-3
{8}
н/о н/о +7.6 +6.1 90 +7 +7 1017.0 904.5 +5.6 +8.8 0.6
07 14.06 ЮВ 4-8
{8}
н/о н/о +8.2 +5.7 84 +5 +5 1016.6 904.4
08 14.06 В 6-10
{10}
н/о н/о +8.5 +6.1 85 +5 +5 1016.7 904.5
09 14.06 В 4-7
{10}
н/о н/о +8.5 +6.8 89 +5 +5 1017.1 904.9
10 14.06 ЮВ 4-7
{8}
н/о н/о +9.2 +7.2 87 +6 +6 1017.4 905.4
11 14.06 ЮВ 4-7
{9}
н/о н/о +8.7 +7.2 90 +6 +6 1017.9 905.7
12 14.06 ЮВ 4-7
{10}
н/о н/о +11.1 +7.4 78 +9 +9 1017.1 905.8
13 14.06 В 4-6
{10}
н/о н/о +10.2 +7.1 81 +8 +8 1017.4 905.8
14 14.06 Ю 5-9
{9}
н/о н/о +12.3 +7.0 70 +10 +10 1016.4 905.7
15 14.06 Ю 5-8
{10}
н/о н/о +9.7 +8.0 89 +6 +6 1017.6 905.8
16 14.06 Ю 5-8
{9}
н/о н/о +9.1 +7.6 90 +6 +6 1018.3 906.2
17 14.06 Ю 3-5
{8}
н/о н/о +9.5 +7.5 87 +7 +7 1017.9 906.0
18 14.06 Ю 2-3
{10}
н/о н/о +9.8 +7.1 83 +8 +8 1017.7 905.9 +7.7 +12.3 0.6
19 14.06 Ю 4-5
{6}
н/о н/о +9.2 +7.7 90 +6 +6 1018.3 906.2
20 14.06 ЮВ 1-2
{7}
н/о н/о +8.4 +7.0 91 +8 +8 1019.1 906.6
21 14.06 Ю 3-4
{4}
н/о н/о +7.9 +6.4 90 +5 +5 1019.4 906.7
22 14.06 Ю 3-4
{4}
н/о н/о +6.7 +5.5 92 +4 +4 1020.4 907.1
23 14.06 В 2-2
{4}
н/о н/о +6.5 +5.9 96 +4 +4 1020.8 907.4
00 15.06 Ю 1-1
{7}
н/о н/о +5.4 +4.8 96 +4 +4 1021.5 907.6
01 15.06 ЮВ 2-2
{3}
н/о н/о +5.1 +4.7 97 +2 +2 1021.4 907.4
02 15.06 ЮВ 1-2
{2}
н/о н/о +4.8 +4.5 98 +3 +3 1021.6 907.5
03 15.06 С 2-2
{2}
н/о н/о +4.4 +4.1 98 +1 +1 1021.8 907.5
04 15.06 З 1-2
{2}
н/о н/о +3.1 +2.7 97 +1 +1 1021.8 907.1
05 15.06 Ю 1-1
{2}
н/о н/о +5.7 +5.4 98 +4 +4 1020.7 907.0
06 15.06 штиль 0-1
{3}
н/о н/о +8.0 +7.6 97 +7 +7 1019.7 907.0 +2.7 +9.7 0.4
07 15.06 С 2-2
{2}
н/о н/о +9.4 +6.3 81 +8 +8 1019.0 906.9
08 15.06 СВ 1-3
{3}
н/о н/о +13.1 +7.3 68 +13 +13 1017.6 907.0
09 15.06 В 2-5
{5}
н/о н/о +15.6 +5.2 50 +16 +16 1016.2 906.7
10 15.06 В 3-6
{7}
н/о н/о +15.8 +6.3 53 +15 +15 1016.1 906.6
11 15.06 ЮВ 4-6
{7}
н/о н/о +16.4 +7.4 55 +16 +16 1015.6 906.4
12 15.06 В 3-5
{7}
н/о н/о +18.0 +7.4 50 +18 +18 1014.4 905.9
13 15.06 ЮВ 4-7
{7}
н/о н/о +16.9 +7.0 52 +16 +16 1014.5 905.6
14 15.06 ЮВ 5-8
{8}
н/о н/о +16.8 +7.7 55 +16 +16 1014.4 905.4
15 15.06 ЮВ 4-7
{9}
н/о н/о +17.6 +7.9 53 +17 +17 1013.6 905.1
16 15.06 ЮВ 4-7
{8}
н/о н/о +15.8 +7.8 59 +15 +15 1013.6 904.4
17 15.06 ЮВ 6-9
{9}
н/о н/о +14.9 +8.2 64 +13 +13 1013.9 904.3
18 15.06 Ю 4-7
{10}
н/о н/о +12.2 +10.1 87 +10 +10 1015.3 904.6 +8.1 +18.1
19 15.06 СВ 1-3
{7}
н/о н/о +11.2 +10.3 94 +11 +11 1015.5 904.5
20 15.06 СВ 1-1
{3}
н/о н/о +10.8 +9.9 94 +10 +10 1015.5 904.3
21 15.06 СВ 1-2
{2}
н/о н/о +10.6 +9.7 94 +10 +10 1015.0 903.8
22 15.06 ЮВ 2-3
{3}
н/о н/о +11.0 +9.4 90 +10 +10 1014.7 903.7
23 15.06 ЮЗ 5-7
{9}
н/о н/о +10.4 +8.8 90 +7 +7 1015.2 903.9
00 16.06 ЮВ 3-4
{9}
н/о н/о +10.0 +9.2 95 +8 +8 1014.9 903.5
01 16.06 В 2-4
{4}
н/о н/о +9.6 +9.0 96 +8 +8 1014.1 902.6
02 16.06 ЮВ 3-5
{5}
н/о н/о +10.4 +10.0 97 +8 +8 1013.1 902.0
03 16.06 ЮВ 2-3
{4}
н/о н/о +10.0 +9.4 96 +8 +8 1012.9 901.7
04 16.06 ЮВ 3-4
{5}
н/о н/о +10.3 +9.7 96 +8 +8 1012.7 901.6
05 16.06 ЮВ 3-3
{3}
н/о н/о +10.8 +9.9 94 +9 +9 1012.5 901.6
06 16.06 В 3-5
{5}
н/о н/о +10.6 +10.0 96 +8 +8 1012.4 901.5 +9.6 +12.2 3
07 16.06 ЮВ 4-6
{8}
н/о н/о +10.0 +9.2 95 +7 +7 1013.2 902.0 2
08 16.06 ЮВ 1-3
{7}
н/о н/о +9.3 +8.2 93 +9 +9 1013.6 902.1
09 16.06 ЮВ 2-4
{4}
н/о н/о +9.3 +7.9 91 +8 +8 1013.5 902.0 1
10 16.06 СЗ 2-3
{5}
н/о н/о +9.3 +8.2 93 +7 +7 1013.7 902.2
11 16.06 СЗ 2-2
{3}
н/о н/о +9.2 +8.6 96 +7 +7 1013.9 902.3
12 16.06 С 1-2
{8}
н/о н/о +9.6 +8.7 94 +9 +9 1013.8 902.4
13 16.06 С 1-2
{2}
н/о н/о +10.6 +9.8 95 +10 +10 1013.6 902.5
14 16.06 ЮЗ 3-5
{5}
н/о н/о +11.5 +10.1 91 +10 +10 1013.4 902.7
15 16.06 Ю 2-4
{5}
н/о н/о +14.0 +9.7 75 +14 +14 1012.2 902.6
16 16.06 ЮЗ 3-5
{6}
н/о н/о +12.7 +9.4 80 +11 +11 1012.6 902.4
17 16.06 ЮЗ 3-5
{5}
н/о н/о +12.6 +9.1 79 +11 +11 1012.5 902.3
18 16.06 ЮЗ 3-4
{6}
н/о н/о +13.0 +8.3 73 +12 +12 1012.4 902.3 +8.9 +14.4 5
19 16.06 ЮЗ 3-4
{4}
н/о н/о +12.1 +8.2 77 +11 +11 1012.7 902.3
20 16.06 З 4-6
{6}
н/о н/о +10.6 +6.8 77 +8 +8 1013.3 902.3
21 16.06 З 4-5
{5}
н/о н/о +9.2 +5.9 80 +6 +6 1014.2 902.6
22 16.06 З 3-5
{7}
н/о н/о +8.1 +4.7 79 +5 +5 1015.0 902.9
23 16.06 СЗ 4-6
{6}
н/о н/о +8.0 +4.6 79 +5 +5 1015.2 903.0

 

Местоположение метеостанции Мосстранд (Норвегия): широта 59.83 долгота 8.18 высота над уровнем моря 977 м.

В архиве по умолчанию представлена погода в Мосстранде за последнюю неделю. Архивные данные за месяц целиком и за предыдущие месяцы, начиная с января 2011 года, Вы можете получить, выбрав интересующий диапазон дат из раскрывающегося списка и нажав кнопку "Ввод!".


*Определитесь, кто Вы:
робот инопланетянин человек

Внимание! Время в таблицах - всемирное. Для получения местного времени необходимо прибавить поправку, которая равна 1 ч.

Смотрите также архив погоды в соседних городах и на ближайших метеорологических станциях:

Погода на Гаустатоппене (Норвегия) (27 км)
Погода в Хойдалсмо (Норвегия) (37 км)
Погода в Вагсли (Норвегия) (46 км)
Погода в Ховдене (Норвегия) (53 км)
Погода в Хаукелисетере (Норвегия) (55 км)
Погода в Сандхау (Норвегия) (55 км)
Погода в Веггли (Норвегия) (59 км)
Погода в Гейло аэропорту (Норвегия) (68 км)
Погода во Гварве (Норвегия) (77 км)
Погода в Гейло (Норвегия) (78 км)

Пояснения к столбцам:

Ветер - указаны скорость ветра в м/с - средняя за 10 мин, порывы в срок и между сроками (в фигурных скобках) и направление, откуда дует ветер: С - северный, СВ - северо-восточный, В - восточный, ЮВ - юго-восточный, Ю - южный, ЮЗ - юго-западный, З - западный, СЗ - северо-западный.
Видимость - горизонтальная дальность видимости в метрах или километрах. При видимости от 1 до 10 км при отсутствии осадков обычно наблюдается дымка, при ухудшении видимости до 1 км и менее - туман. В сухую погоду видимость может ухудшаться дымом, пылью или мглою.
Явления - указаны атмосферные явления, наблюдавшиеся в срок или в последний час перед сроком; фигурными скобками обозначены явления, наблюдавшиеся между сроками (за 1-3 часа до срока); квадратными скобками обозначены град или гололедные отложения с указанием их диаметра в мм.
Облачность - указаны через наклонную черту общая и нижняя облачность в баллах и высота нижней границы облаков в метрах; квадратными скобками обозначены формы облаков: Ci - перистые, Cs - перисто-слоистые, Cc - перисто-кучевые, Ac - высококучевые, As - высокослоистые, Sc - слоисто-кучевые, Ns - слоисто-дождевые, Cu - кучевые, Cb - кучево-дождевые. Подробнее классификацию облаков см. в Атласе облаков (PDF).
T - Температура воздуха - температура, измеренная на высоте 2 м над землей.
Td - Температура точки росы - температура, при понижении до которой содержащийся в воздухе водяной пар достигнет насыщения.
f - Относительная влажность воздуха - влажноcть воздуха, измеренная на высоте 2 м над землей.
Te - Эффективная температура - температура, которую ощущает одетый по сезону человек в тени. Характеристика душности погоды. При расчете учитывается влияние влажности воздуха и скорости ветра на теплоощущения человека.
Tes - Эффективная температура на солнце - температура, которую ощущает человек, с поправкой на солнечный нагрев. Характеристика знойности погоды. Зависит от высоты солнца над горизонтом, облачности и скорости ветра. Ночью, в пасмурную погоду, а также при ветре 12 м/с и более поправка равна нулю.
P - Атмосферное давление - приведенное к уровню моря атмосферное давление.
Po - Атмосферное давление - измеренное на уровне метеостанции атмосферное давление.
Tmin - Минимальная температура - минимум температуры воздуха на высоте 2 м над землей.
Tmax - Максимальная температура - максимум температуры воздуха на высоте 2 м над землей.
R - Количество осадков - Количество выпавших осадков за период времени, мм. При наведении курсора мыши на число - период времени, за который выпало указанное количество осадков.
R24 - Количество осадков - Количество выпавших осадков за 24 часа, мм.
S - Снежный покров - Высота снежного покрова, см. При наведении курсора мыши на число - состояние снежного покрова и степень покрытия местности в баллах.